period_start,C,m1,H,J0,J1,J2,J3,J4,J5,JA,JB,JC,JD,JJ,JK,JN,#
2018-04-19 00:01:17,0.06,0.93,0.00,25.08,27.65,30.54,13.73,48.02,1011.78,2024.03,3034.46,2825.08,3239.24,600.10,589.30,11.99,0000 0000 0000 0000 000000
2018-04-19 00:06:18,0.06,0.93,0.00,25.09,27.65,30.56,13.68,47.98,1011.80,2024.03,3033.25,2824.21,3238.21,599.93,589.04,12.04,0000 0000 0000 0000 000000
2018-04-19 00:11:19,0.06,0.93,0.00,25.14,27.67,30.58,13.70,48.11,1011.83,2024.02,3032.21,2823.46,3237.33,600.22,589.19,12.09,0000 0000 0000 0000 000000
2018-04-19 00:16:21,0.06,0.94,0.00,25.18,27.67,30.57,13.68,48.02,1011.82,2024.01,3031.02,2822.59,3236.28,599.91,588.89,12.14,0000 0000 0000 0000 000000
2018-04-19 00:21:22,0.07,0.94,0.00,25.16,27.70,30.61,13.67,48.11,1011.85,2024.00,3029.61,2821.56,3235.16,599.55,588.46,12.19,0000 0000 0000 0000 000000
2018-04-19 00:26:23,0.05,0.94,0.00,25.20,27.71,30.61,13.81,48.13,1011.91,2024.00,3028.55,2820.86,3234.11,600.12,589.12,12.24,0000 0000 0000 0000 000000
2018-04-19 00:31:24,0.05,0.95,0.00,25.22,27.72,30.63,13.73,47.95,1012.10,2024.00,3027.32,2820.00,3233.15,600.08,588.97,12.29,0000 0000 0000 0000 000000
2018-04-19 00:36:25,0.06,0.95,0.00,25.21,27.74,30.65,13.77,48.06,1012.17,2024.00,3026.20,2819.14,3232.27,600.19,589.19,12.34,0000 0000 0000 0000 000000
2018-04-19 00:41:27,0.06,0.95,0.00,25.27,27.76,30.68,13.68,48.01,1012.10,2024.00,3025.20,2818.45,3231.42,599.95,588.91,12.39,0000 0000 0000 0000 000000
2018-04-19 00:46:28,0.04,0.96,0.00,25.27,27.77,30.69,13.72,48.01,1012.17,2023.98,3024.18,2817.76,3230.58,600.03,588.94,12.44,0000 0000 0000 0000 000000
2018-04-19 00:51:29,0.04,0.96,0.00,25.26,27.80,30.71,13.63,48.06,1012.11,2023.99,3023.15,2817.02,3229.82,599.95,588.75,12.49,0000 0000 0000 0000 000000
2018-04-19 00:56:30,0.05,0.96,0.00,25.31,27.81,30.72,13.71,48.04,1012.03,2023.98,3022.25,2816.34,3228.97,599.97,588.73,12.54,0000 0000 0000 0000 000000
2018-04-19 01:01:32,0.04,0.96,0.00,25.33,27.83,30.74,13.76,47.98,1012.20,2023.93,3021.27,2815.70,3228.07,599.89,588.88,12.59,0000 0000 0000 0000 000000
2018-04-19 01:06:33,0.03,0.97,0.00,25.34,27.86,30.77,13.74,48.02,1012.18,2023.83,3020.17,2814.98,3227.15,599.88,588.65,12.64,0000 0000 0000 0000 000000
2018-04-19 01:11:34,0.03,0.97,0.00,25.37,27.88,30.79,13.78,48.05,1012.02,2023.62,3019.11,2814.16,3226.27,599.79,588.40,12.69,0000 0000 0000 0000 000000
2018-04-19 01:16:35,0.04,0.97,0.00,25.42,27.90,30.81,13.65,47.92,1012.15,2023.46,3018.08,2813.41,3225.37,599.71,588.31,12.74,0000 0000 0000 0000 000000
2018-04-19 01:21:36,0.04,0.97,0.00,25.44,27.92,30.82,13.66,48.07,1012.21,2023.10,3016.89,2812.51,3224.37,599.87,588.49,12.79,0000 0000 0000 0000 000000
2018-04-19 01:26:38,0.06,0.97,0.00,25.45,27.95,30.83,13.69,47.95,1012.20,2023.02,3015.65,2811.68,3223.31,599.80,588.37,12.84,0000 0000 0000 0000 000000
2018-04-19 01:31:39,0.04,0.98,0.00,25.51,27.97,30.85,13.75,48.03,1012.18,2023.01,3014.60,2810.89,3222.35,600.04,588.46,12.89,0000 0000 0000 0000 000000
2018-04-19 01:36:40,0.06,0.98,0.00,25.52,28.00,30.87,13.77,48.10,1012.15,2023.00,3013.33,2809.97,3221.32,600.03,588.47,12.94,0000 0000 0000 0000 000000
2018-04-19 01:41:41,0.06,0.98,0.00,25.54,28.02,30.91,13.70,48.02,1012.15,2023.00,3012.11,2809.07,3220.23,599.87,588.17,12.99,0000 0000 0000 0000 000000
2018-04-19 01:46:43,0.07,0.99,0.00,25.62,28.05,30.93,13.71,47.98,1012.17,2023.00,3010.88,2808.19,3219.20,600.03,588.26,13.04,0000 0000 0000 0000 000000
2018-04-19 01:51:44,0.06,0.99,0.00,25.66,28.08,30.96,13.66,47.89,1012.06,2022.99,3009.61,2807.29,3218.08,599.95,587.99,13.09,0000 0000 0000 0000 000000
2018-04-19 01:56:45,0.06,0.99,0.00,25.67,28.11,30.97,13.71,47.88,1011.90,2022.95,3008.35,2806.24,3216.92,599.90,587.86,13.14,0000 0000 0000 0000 000000
2018-04-19 02:01:47,0.04,1.00,0.00,25.72,28.13,31.01,13.79,47.88,1012.04,2022.68,3007.18,2805.28,3215.73,600.40,588.35,13.19,0000 0000 0000 0000 000000
2018-04-19 02:06:48,0.03,1.00,0.00,25.78,28.16,31.03,13.66,47.88,1011.89,2022.36,3005.82,2804.29,3214.56,599.94,587.80,13.24,0000 0000 0000 0000 000000
2018-04-19 02:11:49,0.06,1.00,0.00,25.80,28.18,31.05,13.71,47.92,1011.79,2022.05,3004.49,2803.24,3213.37,599.70,587.51,13.29,0000 0000 0000 0000 000000
2018-04-19 02:16:50,0.07,1.00,0.00,25.82,28.21,31.07,13.73,47.96,1011.74,2022.02,3003.12,2802.25,3212.18,599.93,587.53,13.34,0000 0000 0000 0000 000000
2018-04-19 02:21:52,0.09,1.01,0.00,25.91,28.24,31.11,13.77,47.95,1011.75,2022.00,3001.56,2801.04,3210.75,600.04,587.47,13.39,0000 0000 0000 0000 000000
2018-04-19 02:26:53,0.09,1.01,0.00,25.99,28.26,31.13,13.71,47.84,1011.74,2022.00,2999.84,2799.78,3209.28,600.07,587.40,13.44,0000 0000 0000 0000 000000
2018-04-19 02:31:54,0.12,1.02,0.00,25.97,28.30,31.15,13.68,47.88,1011.73,2021.98,2997.80,2798.16,3207.40,600.23,587.53,13.49,0000 0000 0000 0000 000000
2018-04-19 02:36:55,0.13,1.02,0.00,26.01,28.32,31.20,13.65,47.92,1011.73,2021.95,2995.38,2796.33,3205.30,599.79,587.00,13.54,0000 0000 0000 0000 000000
2018-04-19 02:41:57,0.10,1.03,0.00,26.11,28.36,31.22,13.63,47.92,1011.73,2021.71,2993.00,2794.56,3203.29,599.93,586.94,13.59,0000 0000 0000 0000 000000
2018-04-19 02:46:58,0.08,1.04,0.00,26.14,28.39,31.25,13.68,47.89,1011.73,2021.36,2990.74,2792.87,3201.33,600.16,587.00,13.64,0000 0000 0000 0000 000000
2018-04-19 02:51:59,0.12,1.04,0.00,26.13,28.42,31.28,13.75,47.92,1011.73,2021.08,2988.23,2791.03,3199.20,600.28,587.25,13.69,0000 0000 0000 0000 000000
2018-04-19 02:57:01,0.17,1.05,0.00,26.18,28.45,31.31,13.67,47.94,1011.73,2021.02,2985.06,2788.47,3196.43,599.88,586.81,13.74,0000 0000 0000 0000 000000
2018-04-19 03:02:02,0.22,1.06,0.00,26.25,28.49,31.34,13.77,48.07,1011.73,2021.00,2981.42,2785.68,3193.21,600.36,587.03,13.79,0000 0000 0000 0000 000000
2018-04-19 03:07:03,0.19,1.07,0.00,26.31,28.52,31.37,13.76,48.00,1011.73,2021.00,2977.74,2782.80,3189.98,600.20,586.75,13.84,0000 0000 0000 0000 000000
2018-04-19 03:12:04,0.33,1.08,0.00,26.30,28.56,31.41,13.52,47.82,1011.74,2020.99,2973.05,2778.87,3185.64,599.55,586.18,13.89,0000 0000 0000 0000 000000
2018-04-19 03:17:05,0.25,1.10,0.00,26.37,28.59,31.43,13.71,47.90,1011.74,2020.91,2967.98,2774.63,3180.90,600.29,586.80,13.94,0000 0000 0000 0000 000000
2018-04-19 03:22:07,0.07,1.11,0.00,26.48,28.63,31.47,13.69,47.93,1011.73,2020.40,2965.38,2772.52,3178.55,599.92,586.22,13.99,0000 0000 0000 0000 000000
2018-04-19 03:27:08,0.10,1.11,0.00,26.51,28.66,31.50,13.60,47.85,1011.73,2020.07,2963.30,2770.87,3176.67,599.79,586.04,14.04,0000 0000 0000 0000 000000
2018-04-19 03:32:10,0.11,1.12,0.00,26.47,28.70,31.54,13.71,47.97,1011.73,2020.00,2961.12,2769.22,3174.67,600.27,586.48,14.09,0000 0000 0000 0000 000000
2018-04-19 03:37:11,0.08,1.12,0.00,26.55,28.74,31.57,13.67,47.96,1011.73,2020.00,2959.51,2767.96,3173.25,599.92,586.17,14.15,0000 0000 0000 0000 000000
2018-04-19 03:42:12,0.09,1.12,0.00,26.66,28.77,31.60,13.57,47.85,1011.75,2019.99,2957.96,2766.80,3171.83,600.15,586.09,14.20,0000 0000 0000 0000 000000
2018-04-19 03:47:13,0.07,1.13,0.00,26.70,28.81,31.64,13.56,47.86,1011.74,2019.92,2956.48,2765.68,3170.50,599.82,585.62,14.25,0000 0000 0000 0000 000000
2018-04-19 03:52:15,0.03,1.13,0.00,26.67,28.85,31.69,13.60,47.84,1011.76,2019.48,2954.97,2764.50,3169.11,599.97,586.00,14.30,0000 0000 0000 0000 000000
2018-04-19 03:57:16,0.06,1.13,0.00,26.69,28.88,31.71,13.57,47.77,1011.76,2019.05,2953.21,2763.18,3167.61,599.99,585.94,14.35,0000 0000 0000 0000 000000
2018-04-19 04:02:17,0.08,1.14,0.00,26.82,28.92,31.74,13.66,47.85,1011.75,2019.00,2951.71,2762.03,3166.17,600.08,585.71,14.40,0000 0000 0000 0000 000000
2018-04-19 04:07:19,0.09,1.14,0.00,26.87,28.96,31.77,13.55,47.68,1011.74,2019.00,2950.10,2760.88,3164.77,599.87,585.44,14.45,0000 0000 0000 0000 000000
2018-04-19 04:12:20,0.08,1.15,0.00,26.89,29.00,31.82,13.62,47.85,1011.73,2018.97,2948.62,2759.72,3163.45,599.92,585.35,14.50,0000 0000 0000 0000 000000
2018-04-19 04:17:21,0.07,1.15,0.00,26.84,29.03,31.86,13.64,47.79,1011.73,2018.90,2947.02,2758.52,3161.95,599.74,585.28,14.55,0000 0000 0000 0000 000000
2018-04-19 04:22:23,0.06,1.15,0.00,26.94,29.07,31.89,13.56,47.74,1011.73,2018.61,2945.48,2757.38,3160.64,600.00,585.31,14.60,0000 0000 0000 0000 000000
2018-04-19 04:27:24,0.03,1.16,0.00,27.03,29.11,31.92,13.57,47.79,1011.73,2018.14,2943.84,2756.21,3159.20,599.76,585.01,14.65,0000 0000 0000 0000 000000
2018-04-19 04:32:25,0.08,1.16,0.00,27.07,29.14,31.96,13.64,47.84,1011.73,2018.01,2942.37,2754.99,3157.78,599.90,584.89,14.70,0000 0000 0000 0000 000000
2018-04-19 04:37:26,0.09,1.16,0.00,27.08,29.18,31.99,13.53,47.61,1011.73,2018.00,2940.75,2753.80,3156.41,599.80,584.91,14.75,0000 0000 0000 0000 000000
2018-04-19 04:42:28,0.09,1.17,0.00,27.04,29.21,32.04,13.61,47.84,1011.72,2018.00,2939.13,2752.59,3154.93,599.78,584.97,14.80,0000 0000 0000 0000 000000
2018-04-19 04:47:29,0.08,1.17,0.00,27.12,29.25,32.07,13.63,47.88,1011.54,2017.98,2937.60,2751.52,3153.62,600.14,585.03,14.85,0000 0000 0000 0000 000000
2018-04-19 04:52:30,0.06,1.18,0.00,27.19,29.28,32.11,13.63,47.85,1011.46,2017.84,2935.94,2750.45,3152.22,599.99,584.72,14.90,0000 0000 0000 0000 000000
2018-04-19 04:57:32,0.04,1.18,0.00,27.23,29.32,32.14,13.65,47.79,1011.50,2017.48,2934.39,2749.37,3150.79,600.15,584.89,14.95,0000 0000 0000 0000 000000
2018-04-19 05:02:33,0.06,1.18,0.00,27.25,29.35,32.18,13.61,47.75,1011.71,2017.07,2932.74,2748.18,3149.45,600.09,584.89,15.00,0000 0000 0000 0000 000000
2018-04-19 05:07:34,0.07,1.19,0.00,27.21,29.38,32.21,13.64,47.73,1011.73,2017.01,2931.23,2747.01,3148.06,599.92,584.90,15.05,0000 0000 0000 0000 000000
2018-04-19 05:12:35,0.09,1.19,0.00,27.21,29.41,32.26,13.64,47.75,1011.73,2017.00,2929.73,2745.88,3146.74,599.88,584.66,15.10,0000 0000 0000 0000 000000
2018-04-19 05:17:37,0.07,1.19,0.00,27.34,29.45,32.28,13.62,47.75,1011.72,2016.99,2928.40,2744.90,3145.47,600.21,584.80,15.15,0000 0000 0000 0000 000000
2018-04-19 05:22:38,0.07,1.20,0.00,27.36,29.48,32.32,13.50,47.72,1011.73,2016.93,2927.03,2743.84,3144.31,599.84,584.40,15.20,0000 0000 0000 0000 000000
2018-04-19 05:27:39,0.02,1.20,0.00,27.39,29.51,32.35,13.58,47.80,1011.73,2016.55,2925.70,2742.79,3143.08,600.02,584.52,15.25,0000 0000 0000 0000 000000
2018-04-19 05:32:40,0.06,1.20,0.00,27.42,29.55,32.38,13.55,47.73,1011.73,2016.13,2924.36,2741.76,3141.80,600.03,584.44,15.30,0000 0000 0000 0000 000000
2018-04-19 05:37:42,0.07,1.21,0.00,27.42,29.58,32.42,13.67,47.73,1011.73,2016.00,2922.92,2740.71,3140.55,599.97,584.37,15.35,0000 0000 0000 0000 000000
2018-04-19 05:42:43,0.08,1.21,0.00,27.42,29.61,32.44,13.72,47.77,1011.73,2016.00,2921.61,2739.69,3139.38,600.08,584.54,15.40,0000 0000 0000 0000 000000
2018-04-19 05:47:44,0.07,1.21,0.00,27.53,29.65,32.48,13.59,47.73,1011.73,2016.00,2920.29,2738.67,3138.16,599.89,584.26,15.45,0000 0000 0000 0000 000000
2018-04-19 05:52:45,0.07,1.22,0.00,27.57,29.68,32.51,13.62,47.66,1011.73,2016.00,2918.90,2737.66,3136.96,600.18,584.38,15.50,0000 0000 0000 0000 000000
2018-04-19 05:57:46,0.07,1.22,0.00,27.59,29.71,32.55,13.64,47.57,1011.73,2015.97,2917.65,2736.70,3135.77,599.86,584.00,15.55,0000 0000 0000 0000 000000
2018-04-19 06:02:47,0.03,1.22,0.00,27.61,29.75,32.59,13.57,47.61,1011.74,2015.76,2916.38,2735.70,3134.72,599.92,584.06,15.60,0000 0000 0000 0000 000000
2018-04-19 06:07:49,0.04,1.23,0.00,27.65,29.77,32.62,13.59,47.65,1011.74,2015.24,2914.96,2734.69,3133.58,600.11,584.21,15.65,0000 0000 0000 0000 000000
2018-04-19 06:12:50,0.07,1.23,0.00,27.62,29.80,32.65,13.74,47.71,1011.74,2015.05,2913.45,2733.53,3132.31,600.22,584.38,15.70,0000 0000 0000 0000 000000
2018-04-19 06:17:51,0.07,1.23,0.00,27.59,29.83,32.68,13.67,47.68,1011.74,2015.01,2911.97,2732.53,3131.03,600.08,584.20,15.75,0000 0000 0000 0000 000000
2018-04-19 06:22:53,0.08,1.24,0.00,27.71,29.86,32.70,13.70,47.67,1011.74,2014.99,2910.46,2731.42,3129.75,600.37,584.30,15.80,0000 0000 0000 0000 000000
2018-04-19 06:27:54,0.07,1.24,0.00,27.75,29.90,32.73,13.68,47.71,1011.73,2014.97,2909.05,2730.41,3128.56,599.98,583.84,15.85,0000 0000 0000 0000 000000
2018-04-19 06:32:55,0.06,1.24,0.00,27.78,29.93,32.76,13.59,47.63,1011.73,2014.94,2907.89,2729.47,3127.50,600.27,584.01,15.90,0000 0000 0000 0000 000000
2018-04-19 06:37:56,0.02,1.25,0.00,27.80,29.96,32.81,13.56,47.63,1011.73,2014.58,2906.60,2728.56,3126.37,600.06,583.78,15.95,0000 0000 0000 0000 000000
2018-04-19 06:42:57,0.03,1.25,0.00,27.80,29.99,32.83,13.63,47.63,1011.73,2014.17,2905.43,2727.62,3125.31,599.88,583.58,16.00,0000 0000 0000 0000 000000
2018-04-19 06:47:58,0.06,1.25,0.00,27.83,30.01,32.87,13.55,47.42,1011.72,2014.02,2904.16,2726.66,3124.16,599.88,583.54,16.05,0000 0000 0000 0000 000000
2018-04-19 06:53:00,0.07,1.25,0.00,27.87,30.04,32.89,13.60,47.47,1011.71,2014.00,2902.83,2725.72,3122.98,599.99,583.42,16.10,0000 0000 0000 0000 000000
2018-04-19 06:58:01,0.08,1.26,0.00,27.88,30.07,32.92,13.58,47.53,1011.73,2014.00,2901.50,2724.73,3121.83,600.15,583.69,16.15,0000 0000 0000 0000 000000
2018-04-19 07:03:03,0.07,1.26,0.00,27.90,30.10,32.94,13.46,47.42,1011.73,2013.97,2900.20,2723.77,3120.68,599.53,583.19,16.20,0000 0000 0000 0000 000000
2018-04-19 07:08:04,0.07,1.27,0.00,27.92,30.12,32.97,13.53,47.46,1011.73,2013.96,2898.84,2722.84,3119.59,599.66,583.27,16.25,0000 0000 0000 0000 000000
2018-04-19 07:13:05,0.05,1.27,0.00,27.95,30.15,32.98,13.65,47.47,1011.73,2013.83,2897.66,2721.89,3118.50,600.26,583.69,16.30,0000 0000 0000 0000 000000
2018-04-19 07:18:06,0.02,1.27,0.00,27.97,30.17,33.02,13.69,47.52,1011.73,2013.42,2896.49,2720.99,3117.48,600.19,583.55,16.35,0000 0000 0000 0000 000000
2018-04-19 07:23:07,0.05,1.27,0.00,27.99,30.20,33.06,13.54,47.40,1011.73,2013.12,2895.20,2720.07,3116.34,599.95,583.30,16.40,0000 0000 0000 0000 000000
2018-04-19 07:28:08,0.07,1.28,0.00,28.00,30.22,33.08,13.60,47.39,1011.73,2013.05,2893.91,2719.15,3115.27,599.71,582.97,16.45,0000 0000 0000 0000 000000
2018-04-19 07:33:10,0.07,1.28,0.00,28.03,30.25,33.09,13.54,47.38,1011.74,2013.01,2892.69,2718.21,3114.13,600.08,583.53,16.50,0000 0000 0000 0000 000000
2018-04-19 07:38:11,0.07,1.28,0.00,28.06,30.27,33.12,13.64,47.34,1011.74,2013.00,2891.44,2717.24,3112.94,600.09,583.30,16.55,0000 0000 0000 0000 000000
2018-04-19 07:43:12,0.07,1.29,0.00,28.07,30.30,33.15,13.50,47.33,1011.74,2013.00,2890.09,2716.23,3111.79,599.89,583.08,16.60,0000 0000 0000 0000 000000
2018-04-19 07:48:13,0.07,1.29,0.00,28.07,30.32,33.18,13.56,47.37,1011.75,2012.99,2888.85,2715.32,3110.70,599.91,583.06,16.65,0000 0000 0000 0000 000000
2018-04-19 07:53:15,0.07,1.29,0.00,28.08,30.35,33.20,13.58,47.37,1011.76,2012.96,2887.59,2714.39,3109.60,600.01,583.16,16.70,0000 0000 0000 0000 000000
2018-04-19 07:58:16,0.05,1.30,0.00,28.12,30.37,33.23,13.56,47.30,1011.76,2012.80,2886.29,2713.30,3108.37,599.71,582.83,16.76,0000 0000 0000 0000 000000
2018-04-19 08:03:17,0.04,1.30,0.00,28.14,30.40,33.25,13.58,47.46,1011.77,2012.58,2884.98,2712.48,3107.32,599.87,582.93,16.81,0000 0000 0000 0000 000000
2018-04-19 08:08:18,0.05,1.30,0.00,28.15,30.42,33.26,13.58,47.29,1011.77,2012.20,2883.66,2711.48,3106.10,599.91,582.96,16.86,0000 0000 0000 0000 000000
2018-04-19 08:13:19,0.06,1.31,0.00,28.16,30.45,33.31,13.52,47.38,1011.75,2012.08,2882.41,2710.47,3104.92,599.66,582.66,16.91,0000 0000 0000 0000 000000
2018-04-19 08:18:21,0.07,1.31,0.00,28.18,30.47,33.33,13.62,47.47,1011.75,2012.01,2881.01,2709.47,3103.69,600.31,583.30,16.96,0000 0000 0000 0000 000000
2018-04-19 08:23:22,0.08,1.31,0.00,28.22,30.50,33.36,13.60,47.34,1011.78,2012.00,2879.65,2708.43,3102.49,600.10,582.96,17.01,0000 0000 0000 0000 000000
2018-04-19 08:28:23,0.07,1.32,0.00,28.24,30.52,33.39,13.52,47.36,1011.80,2012.00,2878.47,2707.44,3101.29,599.78,582.56,17.06,0000 0000 0000 0000 000000
2018-04-19 08:33:25,0.07,1.32,0.00,28.25,30.55,33.41,13.56,47.33,1011.76,2011.99,2877.09,2706.44,3100.10,599.84,582.71,17.11,0000 0000 0000 0000 000000
2018-04-19 08:38:26,0.08,1.32,0.00,28.25,30.57,33.44,13.57,47.33,1011.76,2011.98,2875.68,2705.44,3098.86,599.53,582.41,17.16,0000 0000 0000 0000 000000
2018-04-19 08:43:27,0.07,1.33,0.00,28.24,30.60,33.46,13.57,47.31,1011.78,2011.93,2874.32,2704.41,3097.63,600.07,582.96,17.21,0000 0000 0000 0000 000000
2018-04-19 08:48:28,0.07,1.33,0.00,28.27,30.61,33.50,13.60,47.32,1011.81,2011.80,2872.75,2703.31,3096.31,600.01,582.86,17.26,0000 0000 0000 0000 000000
2018-04-19 08:53:29,0.07,1.34,0.00,28.24,30.64,33.50,13.59,47.17,1011.88,2011.63,2871.30,2702.17,3095.01,599.89,582.88,17.31,0000 0000 0000 0000 000000
2018-04-19 08:58:30,0.04,1.34,0.00,28.24,30.66,33.53,13.54,47.30,1011.94,2011.25,2869.79,2701.11,3093.70,599.64,582.53,17.36,0000 0000 0000 0000 000000
2018-04-19 09:03:31,0.07,1.34,0.00,28.25,30.67,33.54,13.59,47.28,1011.82,2011.03,2868.37,2699.95,3092.42,600.23,583.06,17.41,0000 0000 0000 0000 000000
2018-04-19 09:08:32,0.09,1.35,0.00,28.25,30.70,33.57,13.61,47.28,1012.04,2011.00,2866.81,2698.78,3091.00,599.99,583.01,17.46,0000 0000 0000 0000 000000
2018-04-19 09:13:34,0.08,1.35,0.00,28.24,30.71,33.58,13.57,47.23,1012.12,2011.00,2865.25,2697.67,3089.69,600.25,583.26,17.51,0000 0000 0000 0000 000000
2018-04-19 09:18:35,0.08,1.35,0.00,28.23,30.73,33.59,13.58,47.32,1012.15,2011.00,2863.77,2696.58,3088.39,599.60,582.74,17.56,0000 0000 0000 0000 000000
2018-04-19 09:23:36,0.08,1.36,0.00,28.18,30.75,33.61,13.57,47.26,1012.12,2010.99,2862.22,2695.43,3087.08,599.76,582.96,17.61,0000 0000 0000 0000 000000
2018-04-19 09:28:38,0.08,1.36,0.00,28.18,30.76,33.61,13.59,47.33,1012.20,2010.98,2860.66,2694.40,3085.84,599.99,583.22,17.66,0000 0000 0000 0000 000000
2018-04-19 09:33:39,0.08,1.37,0.00,28.16,30.77,33.62,13.61,47.30,1012.23,2010.94,2858.95,2693.27,3084.52,600.11,583.42,17.71,0000 0000 0000 0000 000000
2018-04-19 09:38:40,0.08,1.37,0.00,28.12,30.80,33.65,13.64,47.34,1012.22,2010.83,2857.24,2691.99,3083.04,600.21,583.45,17.76,0000 0000 0000 0000 000000
2018-04-19 09:43:42,0.06,1.38,0.00,28.10,30.80,33.64,13.65,47.27,1012.20,2010.51,2855.65,2690.87,3081.68,600.05,583.39,17.81,0000 0000 0000 0000 000000
2018-04-19 09:48:43,0.05,1.38,0.00,28.10,30.81,33.66,13.59,47.26,1011.82,2010.22,2854.32,2689.83,3080.47,599.88,583.12,17.86,0000 0000 0000 0000 000000
2018-04-19 09:53:44,0.06,1.38,0.00,28.06,30.82,33.66,13.61,47.37,1011.77,2010.08,2853.00,2688.88,3079.39,600.25,583.43,17.91,0000 0000 0000 0000 000000
2018-04-19 09:58:45,0.07,1.39,0.00,28.04,30.82,33.67,13.65,47.33,1012.17,2010.06,2851.61,2687.93,3078.26,600.37,583.77,17.96,0000 0000 0000 0000 000000
2018-04-19 10:03:46,0.07,1.39,0.00,28.04,30.83,33.67,13.55,47.36,1012.21,2010.02,2850.33,2687.02,3077.07,599.59,583.13,18.01,0000 0000 0000 0000 000000
2018-04-19 10:08:47,0.07,1.39,0.00,27.99,30.84,33.66,13.55,47.23,1012.22,2010.03,2848.89,2686.10,3075.92,599.98,583.63,18.06,0000 0000 0000 0000 000000
2018-04-19 10:13:49,0.09,1.40,0.00,27.96,30.85,33.65,13.64,47.31,1012.22,2010.00,2847.20,2685.01,3074.67,600.24,583.91,18.11,0000 0000 0000 0000 000000
2018-04-19 10:18:50,0.14,1.40,0.00,27.94,30.85,33.66,13.63,47.44,1012.22,2010.00,2844.38,2683.61,3072.96,599.88,583.42,18.16,0000 0000 0000 0000 000000
2018-04-19 10:23:51,0.10,1.41,0.00,27.91,30.85,33.67,13.59,47.47,1012.22,2010.01,2841.79,2682.28,3071.47,599.98,583.76,18.21,0000 0000 0000 0000 000000
2018-04-19 10:28:53,0.08,1.41,0.00,27.87,30.84,33.66,13.61,47.47,1012.22,2010.01,2839.88,2681.20,3070.32,600.24,583.94,18.26,0000 0000 0000 0000 000000
2018-04-19 10:33:54,0.08,1.42,0.00,27.85,30.83,33.66,13.61,47.32,1012.22,2010.01,2838.16,2680.17,3069.06,599.71,583.50,18.31,0000 0000 0000 0000 000000
2018-04-19 10:38:55,0.08,1.42,0.00,27.83,30.82,33.64,13.60,47.33,1012.22,2010.02,2836.52,2679.16,3067.86,600.28,584.18,18.36,0000 0000 0000 0000 000000
2018-04-19 10:43:57,0.07,1.43,0.00,27.78,30.82,33.63,13.64,47.48,1012.22,2010.02,2835.22,2678.25,3066.83,600.25,584.28,18.41,0000 0000 0000 0000 000000
2018-04-19 10:48:58,0.08,1.43,0.00,27.77,30.82,33.63,13.58,47.33,1012.22,2010.01,2833.78,2677.23,3065.66,599.62,583.60,18.46,0000 0000 0000 0000 000000
2018-04-19 10:53:59,0.07,1.43,0.00,27.76,30.81,33.63,13.62,47.37,1012.22,2010.02,2832.61,2676.44,3064.67,599.76,583.91,18.51,0000 0000 0000 0000 000000
2018-04-19 10:59:01,0.07,1.44,0.00,27.72,30.80,33.61,13.64,47.45,1012.23,2010.05,2831.31,2675.56,3063.63,600.23,584.38,18.56,0000 0000 0000 0000 000000
2018-04-19 11:04:02,0.09,1.44,0.00,27.68,30.80,33.59,13.66,47.35,1012.24,2010.03,2829.63,2674.37,3062.23,600.06,584.34,18.61,0000 0000 0000 0000 000000
2018-04-19 11:09:04,0.08,1.45,0.00,27.64,30.77,33.59,13.64,47.45,1012.25,2010.15,2828.19,2673.36,3061.08,599.90,584.27,18.66,0000 0000 0000 0000 000000
2018-04-19 11:14:05,0.07,1.45,0.00,27.60,30.77,33.59,13.59,47.51,1012.29,2010.23,2826.90,2672.60,3060.07,599.97,584.55,18.71,0000 0000 0000 0000 000000
2018-04-19 11:19:06,0.09,1.46,0.00,27.57,30.75,33.58,13.67,47.50,1012.45,2010.49,2825.72,2671.82,3059.07,600.29,584.86,18.76,0000 0000 0000 0000 000000
2018-04-19 11:24:08,0.07,1.46,0.00,27.55,30.74,33.56,13.67,47.37,1012.60,2010.51,2824.38,2670.86,3057.98,600.21,584.98,18.81,0000 0000 0000 0000 000000
2018-04-19 11:29:09,0.08,1.47,0.00,27.53,30.72,33.53,13.64,47.48,1012.62,2010.76,2823.19,2670.02,3056.96,599.89,584.78,18.86,0000 0000 0000 0000 000000
2018-04-19 11:34:11,0.08,1.47,0.00,27.49,30.70,33.54,13.66,47.52,1012.69,2010.90,2821.99,2669.19,3056.03,599.97,584.83,18.91,0000 0000 0000 0000 000000
2018-04-19 11:39:12,0.08,1.47,0.00,27.45,30.69,33.54,13.64,47.58,1012.71,2010.95,2820.69,2668.34,3055.01,599.93,584.82,18.96,0000 0000 0000 0000 000000
2018-04-19 11:44:13,0.07,1.48,0.00,27.40,30.67,33.53,13.63,47.41,1012.71,2010.98,2819.42,2667.46,3053.92,599.92,584.96,19.01,0000 0000 0000 0000 000000
2018-04-19 11:49:15,0.09,1.48,0.00,27.35,30.65,33.51,13.75,47.58,1012.66,2010.99,2818.00,2666.40,3052.59,600.34,585.39,19.06,0000 0000 0000 0000 000000
2018-04-19 11:54:16,0.20,1.49,0.00,27.35,30.63,33.54,13.66,47.37,1012.53,2010.99,2814.83,2664.27,3050.18,600.07,585.04,19.11,0000 0000 0000 0000 000000
2018-04-19 11:59:17,0.15,1.50,0.00,27.32,30.61,33.50,13.70,47.47,1012.25,2011.00,2811.48,2661.98,3047.62,600.38,585.35,19.16,0000 0000 0000 0000 000000
2018-04-19 12:04:19,0.10,1.50,0.00,27.27,30.59,33.49,13.64,47.53,1012.24,2011.00,2809.64,2660.71,3046.13,599.86,584.89,19.21,0000 0000 0000 0000 000000
2018-04-19 12:09:20,0.10,1.51,0.00,27.24,30.56,33.53,13.65,47.66,1012.26,2011.01,2807.98,2659.58,3044.78,599.72,584.90,19.26,0000 0000 0000 0000 000000
2018-04-19 12:14:21,0.08,1.51,0.00,27.18,30.54,33.52,13.76,47.58,1012.60,2011.01,2806.40,2658.50,3043.50,600.20,585.68,19.31,0000 0000 0000 0000 000000
2018-04-19 12:19:22,0.09,1.52,0.00,27.17,30.51,33.52,13.72,47.55,1012.70,2011.01,2804.91,2657.35,3042.13,600.19,585.70,19.36,0000 0000 0000 0000 000000
2018-04-19 12:24:23,0.12,1.52,0.00,27.14,30.49,33.49,13.68,47.57,1012.71,2011.05,2802.99,2655.99,3040.61,600.13,585.65,19.41,0000 0000 0000 0000 000000
2018-04-19 12:29:24,0.14,1.53,0.00,27.09,30.46,33.48,13.75,47.55,1012.71,2011.12,2800.57,2654.49,3038.94,600.17,585.61,19.46,0000 0000 0000 0000 000000
2018-04-19 12:34:26,0.12,1.54,0.00,27.04,30.44,33.49,13.67,47.50,1012.71,2011.20,2798.33,2653.01,3037.25,599.80,585.56,19.51,0000 0000 0000 0000 000000
2018-04-19 12:39:27,0.13,1.54,0.00,27.00,30.41,33.49,13.63,47.52,1012.67,2011.41,2796.14,2651.69,3035.72,599.94,585.86,19.56,0000 0000 0000 0000 000000
2018-04-19 12:44:28,0.14,1.55,0.00,27.00,30.38,33.45,13.68,47.57,1012.71,2011.78,2794.24,2650.53,3034.36,599.69,585.52,19.61,0000 0000 0000 0000 000000
2018-04-19 12:49:29,0.11,1.56,0.00,26.98,30.35,33.40,13.70,47.63,1012.71,2011.96,2792.25,2649.35,3032.98,600.00,585.90,19.67,0000 0000 0000 0000 000000
2018-04-19 12:54:31,0.09,1.56,0.00,26.93,30.32,33.39,13.74,47.49,1012.71,2011.98,2790.36,2648.23,3031.73,599.57,585.56,19.72,0000 0000 0000 0000 000000